#timestamp,LO_Frequency,Hit,StdDev 
1612022415.2,286046996.7,N
1612022435.0,286046996.9,N
1612022435.9,286046996.9,N
1612022455.8,286046996.7,N
1612022475.6,286046996.8,N
1612022495.4,286046995.1,N
1612022515.3,286046996.3,N
1612022535.1,286046993.6,N
1612022555.8,286046993.4,N
1612022575.7,286046995.9,N
1612022595.5,286046993.6,N
1612022615.4,286046994.5,N
1612022635.2,286046997.5,N
1612022655.0,286046996.5,N
1612022655.9,286046996.5,N
1612022675.8,286046996.5,N
1612022695.6,286046999.1,N
1612022715.5,286047001.1,N
1612022735.3,286046996.5,N
1612022755.1,286046994.9,N
1612022775.9,286046995.7,N
1612022795.7,286046995.0,N
1612022815.5,286046996.8,N
1612022835.4,286046993.4,N
1612022855.2,286046995.2,N
1612022875.1,286046998.0,N
1612022876.0,286046998.0,N
1612022895.8,286047016.6,Y
1612022915.6,286047014.3,P
1612022935.5,286047015.0,N
1612022955.3,286047014.0,N
1612022975.2,286047011.1,N
1612022995.9,286047010.8,N
1612023015.7,286047006.6,N
1612023035.6,286047003.1,N
1612023055.4,286047004.2,N
1612023075.2,286047001.0,N
1612023095.1,286047002.3,N
1612023096.0,286047002.3,N
1612023115.8,286047000.4,N
1612023165.7,286047008.3,E
1612023175.6,286047001.4,N
1612023195.5,286046995.6,P
1612023215.3,286046993.6,N
1612023235.1,286046995.2,N
1612023255.9,286046997.8,N
1612023275.7,286046994.9,N
1612023295.5,286046997.3,N
1612023315.4,286046997.2,N
1612023335.2,286046999.7,N
1612023355.1,286047000.9,N
1612023356.0,286047000.9,N
1612023375.8,286047007.3,N
1612023395.6,286047002.1,N
1612023415.5,286046998.9,N
1612023435.3,286047001.6,N
1612023455.1,286047003.5,N
1612023475.9,286047000.4,N
1612023495.7,286047002.8,N
1612023515.6,286046999.2,N
1612023535.4,286046999.2,N
1612023555.2,286046997.9,N
1612023575.1,286046998.3,N
1612023576.0,286046998.3,N
1612023595.8,286047001.0,N
1612023615.7,286047000.3,N
1612023635.5,286047005.6,N
1612023655.3,286047003.2,N
1612023675.2,286047001.8,N
1612023695.0,286046999.7,N
1612023695.9,286046999.7,N
1612023715.8,286047001.7,N
1612023735.6,286047002.8,N
1612023755.4,286046999.8,N
1612023775.3,286047002.7,N
1612023795.1,286047001.9,N
1612023815.8,286046999.7,N
1612023835.7,286047000.0,N
1612023855.5,286047003.5,N
1612023875.4,286047010.8,Y
1612023895.2,286047007.2,P
1612023915.0,286047004.6,N
1612023915.9,286047004.6,N
1612023935.8,286047007.3,Y
1612023955.6,286047003.0,P
1612023975.5,286047001.9,N
1612023995.3,286046998.9,N
1612024015.1,286046995.4,N
1612024035.9,286046996.2,N
1612024055.7,286046995.4,N
1612024075.5,286046996.7,N
1612024095.4,286047001.3,N
1612024115.2,286047002.8,N
1612024135.1,286047000.2,N
1612024136.0,286047000.2,N
1612024155.8,286047000.5,N
1612024175.6,286047000.9,N
1612024195.5,286046998.1,N
1612024215.3,286046999.3,N
1612024235.2,286046999.4,N
1612024255.9,286046999.6,N
1612024275.7,286046997.6,N
1612024295.6,286046998.9,N
1612024315.4,286046999.3,N
1612024335.2,286046993.7,N
1612024355.1,286046993.6,N
1612024356.0,286046993.6,N
1612024375.8,286046996.2,N
1612024395.7,286046995.9,N
1612024415.5,286046993.6,N
1612024435.3,286046994.0,N
1612024455.2,286046993.8,N
1612024475.0,286046994.0,N
1612024475.9,286046994.0,N
1612024495.8,286046995.7,N
1612024515.6,286046997.7,N
1612024535.4,286046997.2,N
1612024555.3,286046995.9,N
1612024575.1,286046996.4,N
1612024595.8,286046994.2,N
1612024615.7,286046996.1,N
1612024635.5,286046995.6,N
1612024655.4,286046995.5,N
1612024675.2,286046994.0,N
1612024695.0,286046993.5,N
1612024695.9,286046993.5,N
1612024715.8,286046994.0,N
1612024735.6,286046995.2,N
1612024755.5,286046993.9,Y
1612024775.3,286046996.8,P
1612024795.1,286046995.0,P
1612024815.9,286046997.4,P
1612024835.7,286046996.7,Y
1612024855.6,286047001.6,P
1612024875.4,286047002.6,N
1612024895.2,286047000.6,N
1612024915.1,286046998.5,N
1612024916.0,286046998.5,N
1612024935.8,286046998.1,N
1612024955.6,286047001.1,N
1612024975.5,286047002.6,N
1612024995.3,286047005.6,N
1612025015.2,286047005.6,N
1612025035.9,286047003.1,N
1612025055.7,286047007.0,N
1612025075.6,286047009.1,N
1612025095.4,286047006.8,N
1612025115.2,286047007.6,N
1612025135.1,286047007.2,N
1612025136.0,286047007.2,N
1612025155.8,286047009.0,N
1612025175.7,286047009.2,N
1612025195.5,286047004.7,N
1612025215.3,286047003.2,N
1612025235.2,286047001.3,N
1612025255.0,286047001.6,N
1612025255.9,286047001.6,N
1612025275.8,286047000.4,N
1612025295.6,286047000.0,N
1612025315.4,286047001.0,N
1612025335.3,286046998.2,N
1612025355.1,286047001.1,N
1612025375.9,286046999.2,N
1612025395.7,286046997.5,N
1612025415.5,286046997.5,N
1612025435.4,286046995.7,N
1612025455.2,286046993.7,N
1612025475.0,286046999.5,N
1612025475.9,286046999.5,N
1612025495.8,286046997.0,N
1612025515.6,286046992.4,N
1612025535.5,286046992.1,N
1612025555.3,286046989.3,N
1612025575.1,286046988.3,N
1612025595.9,286046983.9,N
1612025615.7,286046984.2,N
1612025635.6,286046989.8,N
1612025655.4,286046987.9,N
1612025675.2,286046986.0,N
1612025695.1,286046988.1,N
1612025696.0,286046988.1,N
1612025715.8,286046989.9,N
1612025735.6,286046987.7,N
1612025755.5,286046989.9,N
1612025775.3,286046988.5,N
1612025795.2,286046988.0,N
1612025815.9,286046987.6,N
1612025835.7,286046989.8,N
1612025855.6,286046990.7,N
1612025875.4,286046989.2,N
1612025895.3,286046989.7,N
1612025915.1,286046989.3,N
1612025916.0,286046989.3,N
1612025935.8,286046989.9,N
1612025955.7,286046992.9,N
1612025975.5,286046992.4,N
1612025995.3,286046992.6,N
